Content
SEND FEEDBACK

Daily
Averages
Monthly
Summary
United States of America

WILMINGTON, NORTH CAROLINA


Home > North America > United States > North Carolina
Elevation: 72 feet     Latitude: 34 16N     Longitude: 077 54W

WEATHER
 
SELECT A DAY
Number of Records: 208,938;   Date Range: 1/1/95 - 8/12/14
 
SHARE

PRINT THIS DATA

[ ← Previous Day ]
WEATHER ALMANAC - OCTOBER 29, 2013
[ Next Day → ]
[ °C ]   °F
Weather ElementAverageHighLow
Temperature61.5 °F75.9 °F (12:53 pm)51.1 °F (4:53 am)
Dewpoint53.6 °F57.9 °F (11:53 am)48 °F (4:53 am)
Humidity77.1 %93 % (2:53 am)52 % (12:53 pm)
Barometer30.28 in30.32 in (9:53 am)30.24 in (1:53 am)
Wind Speed1.5 mph6.9 mph (2:53 pm)
Weather ElementAverage
Visibility8.1 mi
Wind DirectionNE (43 °)

Weather ElementTotal
Precipitation---
Heating Degree Days1.5 (Base 65)
Growing Degree Days13.5 (Base 50)
Averaged from 23 records on October 29, 2013
WEATHER CONDITIONS BREAKOUT
WIND DIRECTION BREAKOUT
WEATHER BY HOUR - OCTOBER 29, 2013
[ °C ]   °F
Local TimeTemperatureDewpointHumidityBarometerVisibilityWind DirectionWind SpeedGust SpeedPrecipitationEventsConditions
1:53 AM54.0 °F51.1 °F90 %30.24 in8.0 miCalmClear
2:53 AM52.0 °F50.0 °F93 %30.25 in5.0 miCalmClear
3:53 AM52.0 °F48.9 °F89 %30.25 in6.0 miCalmClear
4:53 AM51.1 °F48.0 °F89 %30.25 in9.0 miCalmClear
5:53 AM51.1 °F48.9 °F92 %30.27 in7.0 miCalmClear
6:53 AM52.0 °F48.9 °F89 %30.28 in7.0 miCalmClear
7:53 AM51.1 °F48.9 °F92 %30.30 in5.0 miCalmClear
8:53 AM57.0 °F53.1 °F87 %30.31 in6.0 miCalmPartly Cloudy
9:53 AM64.0 °F55.9 °F75 %30.32 in7.0 miCalmClear
10:53 AM69.1 °F57.0 °F65 %30.32 in10.0 miCalmClear
11:53 AM73.0 °F57.9 °F59 %30.31 in10.0 miCalmPartly Cloudy
12:53 PM75.9 °F57.0 °F52 %30.30 in10.0 miNNW (330°)5.8 mphMostly Cloudy
1:53 PM75.0 °F57.0 °F53 %30.26 in10.0 miSSE (160°)4.6 mphPartly Cloudy
2:53 PM72.0 °F57.0 °F59 %30.25 in10.0 miESE (120°)6.9 mphMostly Cloudy
3:53 PM72.0 °F55.9 °F57 %30.25 in10.0 miSE (130°)5.8 mphClear
4:53 PM70.0 °F55.0 °F59 %30.25 in10.0 miSE (130°)6.9 mphClear
5:53 PM69.1 °F55.0 °F61 %30.27 in10.0 miESE (120°)3.5 mphOvercast
6:53 PM66.0 °F55.9 °F70 %30.27 in10.0 miCalmOvercast
7:53 PM61.0 °F55.9 °F83 %30.30 in10.0 miCalmClear
8:53 PM59.0 °F55.0 °F87 %30.30 in10.0 miCalmClear
9:53 PM57.9 °F55.0 °F90 %30.30 in5.0 miCalmClear
10:53 PM55.9 °F54.0 °F93 %30.31 in5.0 miCalmClear
11:53 PM55.0 °F52.0 °F89 %30.30 in6.0 miCalmClear
Hourly data recorded from KILM, located miles away from Wilmington, North Carolina







STORIES FROM OUR PARTNERS